Simultaneous Nadir Overpasses (SNOs) Predictions

Prediction of SNOs between AQUA and METOP-A Satellite Orbit:

Table of predicted SNOs for the next 14.0 days since TLE Epoch: 11/21/2020
Index Date (AQUA) Time (AQUA) Lat,Lon (AQUA) SZA (AQUA ) Date (METOP-A) Time (METOP-A) Lat,Lon (METOP-A) SZA (METOP-A ) Distance(km) Time Diff (sec)
1 11/23/2020 08:19:05 -76.72,-138.34 82.70 11/23/2020 08:17:52 -76.67,-138.84 82.72 14.16 73
2 11/23/2020 09:08:34 76.78, 29.06 97.38 11/23/2020 09:08:29 76.81, 29.03 97.41 3.13 5
3 11/23/2020 09:58:01 -76.85,-163.54 82.54 11/23/2020 09:59:10 -76.83,-163.58 82.57 2.92 69
4 11/26/2020 03:53:21 -76.76, -72.06 82.10 11/26/2020 03:52:11 -76.78, -72.07 82.06 2.52 70
5 11/26/2020 04:42:50 76.83, 95.33 97.99 11/26/2020 04:42:50 76.84, 95.46 98.00 3.35 0
6 11/26/2020 05:32:17 -76.90, -97.27 81.93 11/26/2020 05:33:30 -76.90, -96.96 81.95 7.71 73
7 11/28/2020 23:27:37 -76.77, -5.64 81.58 11/28/2020 23:26:34 -76.76, -5.80 81.57 3.98 63
8 11/29/2020 00:17:06 76.84, 161.74 98.51 11/29/2020 00:17:13 76.81, 161.72 98.49 2.88 7
9 11/29/2020 01:06:38 -77.14, -31.72 81.15 11/29/2020 01:07:47 -77.15, -29.65 81.23 51.38 69
10 12/01/2020 19:01:53 -76.78, 60.75 81.11 12/01/2020 19:00:56 -76.79, 60.63 81.09 3.05 57
11 12/01/2020 19:51:22 76.85,-131.87 98.98 12/01/2020 19:51:35 76.83,-131.87 98.96 2.25 13
12 12/04/2020 14:36:09 -76.80, 127.11 80.69 12/04/2020 14:35:18 -76.81, 127.05 80.67 1.63 51
13 12/04/2020 15:25:38 76.87, -65.52 99.41 12/04/2020 15:25:57 76.85, -65.46 99.38 3.24 19
